Powrót do katalogu

COSMOS 1275 DEB

AktywnyPO
NORAD 42210·DEBRIS·🇷🇺 Russia

Wystrzelony Jun 4, 1981 z Plesetsk Cosmodrome

Loading…

Następne Przeloty (najbliższe 24 godziny)

TLE

ŚwieżeSource: Space-Track

Epoka: Sep 14, 2026, 14:41 UTC

1 42210U 81053UA  26257.61222402  .00000623  00000-0  64347-3 0  9995
2 42210  83.0083 205.5759 0108709 114.5852   6.4298 13.71791698639680

Śledź COSMOS 1275 DEB w czasie rzeczywistym z AllMySat

Download on the App Store